Location: Theydon Bois
(51.6750°N, 0.1050°E)
Time: 11:17:23
(UTC+00:00)

GP-B - Visible Passes

Search period start: 25 November 2017 00:00
Search period end: 05 December 2017 00:00
Orbit: 632 x 635 km, 89.8° (Epoch: 25 November)

Date Brightness Start Highest point End Pass type
(mag) Time Alt. Az. Time Alt. Az. Time Alt. Az.
27 Nov 5.8 16:40:43 10° NNW 16:43:50 19° WNW 16:46:57 10° WSW visible
28 Nov 6.1 17:03:49 10° NW 17:05:18 12° WNW 17:06:47 10° W visible
01 Dec 5.8 16:30:48 10° NNW 16:33:39 17° WNW 16:36:31 10° WSW visible
02 Dec 6.2 16:54:37 10° WNW 16:55:05 10° WNW 16:55:35 10° WNW visible
